Hourly Data Report for June 29, 2021

SANIRAJAK AIRPORT
NUNAVUT
Current Station Operator: NAVCAN

68°46'33.000" N
81°14'33.000" W
9.10 m
2402354
71293
YUX

Download Data

Hourly Data (June 2021)
Hourly Data Report for June 29, 2021
TIME
LST
Temp Definition
°C
Dew Point Definition
°C
Rel Hum Definition
%
Precip. Amount Definition
mm

Wind Dir Definition
10's deg

Wind Spd Definition
km/h
Visibility Definition
km
Stn Press Definition
kPa
Hmdx Definition


Wind Chill Definition


Weather Definition


00:00 2.6 1.4 92 0.0 30 30 16.1 101.01     LegendNANA
01:00 2.5 1.3 92 0.0 31 32 16.1 101.01     LegendNANA
02:00 2.4 1.4 93 0.0 31 32 16.1 101.03     LegendNANA
03:00 2.5 1.3 92 0.0 31 34 16.1 101.03     LegendNANA
04:00 3.1 1.8 91 0.0 31 30 16.1 101.06     LegendNANA
05:00 3.2 1.9 91 0.0 30 22 16.1 101.11     LegendNANA
06:00 3.7 2.4 91 0.0 31 24 16.1 101.12     LegendNANA
07:00 4.1 2.8 91 0.0 31 28 16.1 101.13     LegendNANA
08:00 5.6 3.6 87 0.0 LegendMM LegendMM 16.1 101.16     LegendNANA
09:00 6.6 4.4 86 0.0 31 35 16.1 101.17     LegendNANA
10:00 6.2 4.4 88 0.0 32 32 16.1 101.18     LegendNANA
11:00 6.6 4.9 89 0.0 32 24 16.1 101.17     LegendNANA
12:00 7.0 5.2 88 0.0 32 30 16.1 101.17     LegendNANA
13:00 8.3 5.9 85 0.0 32 30 16.1 101.21     LegendNANA
14:00 9.5 6.9 84 0.0 32 35 16.1 101.21     LegendNANA
15:00 9.8 7.0 83 0.0 32 37 16.1 101.24     LegendNANA
16:00 10.0 7.1 82 0.0 31 34 16.1 101.28     LegendNANA
17:00 10.0 6.7 80 0.0 30 24 16.1 101.32     LegendNANA
18:00 10.2 6.8 80 0.0 31 22 16.1 101.38     LegendNANA
19:00 9.2 5.0 75 0.0 31 32 16.1 101.33     LegendNANA
20:00 8.6 4.8 77 0.0 28 24 16.1 101.35     LegendNANA
21:00 7.9 4.1 77 0.0 29 32 16.1 101.35     LegendNANA
22:00 6.4 4.2 86 0.0 29 26 16.1 101.36     LegendNANA
23:00 6.1 3.8 85 0.0 26 22 16.1 101.33     LegendNANA

Notes on Data Quality.

Legend

  • E = Estimated
  • M = Missing
  • NA = Not Available*
  • [empty] = Indicates an unobserved value
Date modified: